| time (UTC) | temp C | wind direction | speed KPH | gust KPH | rain 1hr cm | rain 24hr cm | rain mn cm | humidity % | barometer mb |
| 20260509011008 | 9 | 355 | 4.8 | 6.4 | 0.00 | 0.25 | 0.00 | 84 | 1019.3 |
| 20260509010011 | 9 | 26 | 1.6 | 4.8 | 0.00 | 0.25 | 0.00 | 82 | 1019.3 |
| 20260509005009 | 9 | 26 | 1.6 | 3.2 | 0.00 | 0.33 | 0.00 | 82 | 1019.2 |
| 20260509004006 | 9 | 26 | 1.6 | 3.2 | 0.00 | 0.33 | 0.00 | 83 | 1019.4 |
| 20260509002006 | 9 | 26 | 3.2 | 6.4 | 0.00 | 0.33 | 0.00 | 82 | 1019.5 |
| 20260509001005 | 9 | 26 | 4.8 | 6.4 | 0.00 | 0.33 | 0.00 | 82 | 1019.6 |
| 20260509000008 | 9 | 26 | 3.2 | 4.8 | 0.00 | 0.33 | 0.00 | 82 | 1019.6 |
| 20260508235006 | 10 | 26 | 4.8 | 8.0 | 0.00 | 0.51 | 0.00 | 82 | 1019.7 |
| 20260508234006 | 9 | 30 | 4.8 | 8.0 | 0.00 | 0.51 | 0.00 | 82 | 1019.7 |
| 20260508233006 | 10 | 19 | 4.8 | 9.7 | 0.00 | 0.51 | 0.00 | 82 | 1019.7 |
| 20260508232005 | 10 | 12 | 6.4 | 9.7 | 0.00 | 0.51 | 0.00 | 82 | 1019.7 |
| 20260508231005 | 10 | 31 | 4.8 | 8.0 | 0.00 | 0.51 | 0.00 | 82 | 1019.6 |
| 20260508230012 | 10 | 25 | 4.8 | 8.0 | 0.00 | 0.51 | 0.00 | 81 | 1019.7 |
| 20260508225006 | 10 | 10 | 6.4 | 9.7 | 0.00 | 0.51 | 0.00 | 81 | 1019.9 |
| 20260508224007 | 10 | 17 | 6.4 | 12.9 | 0.00 | 0.51 | 0.00 | 81 | 1019.9 |
| 20260508223005 | 10 | 360 | 4.8 | 8.0 | 0.00 | 0.51 | 0.00 | 82 | 1019.8 |
| 20260508222005 | 10 | 5 | 6.4 | 9.7 | 0.00 | 0.51 | 0.00 | 81 | 1019.8 |
| 20260508221005 | 10 | 14 | 6.4 | 12.9 | 0.00 | 0.51 | 0.00 | 81 | 1019.7 |
| 20260508220010 | 10 | 18 | 6.4 | 11.3 | 0.00 | 0.51 | 0.00 | 81 | 1019.6 |
| 20260508215006 | 10 | 346 | 8.0 | 14.5 | 0.00 | 0.53 | 0.51 | 81 | 1019.5 |
| 20260508214005 | 10 | 338 | 6.4 | 14.5 | 0.00 | 0.53 | 0.51 | 81 | 1019.5 |
| 20260508213002 | 10 | 348 | 6.4 | 12.9 | 0.00 | 0.53 | 0.51 | 81 | 1019.5 |
| 20260508205003 | 10 | 5 | 6.4 | 12.9 | 0.00 | 0.53 | 0.51 | 82 | 1019.5 |
| 20260508204005 | 10 | 350 | 6.4 | 12.9 | 0.00 | 0.53 | 0.51 | 81 | 1019.4 |
| 20260508203005 | 10 | 11 | 8.0 | 14.5 | 0.00 | 0.53 | 0.51 | 81 | 1019.2 |
| 20260508202003 | 10 | 13 | 8.0 | 14.5 | 0.00 | 0.53 | 0.51 | 81 | 1019.2 |
| 20260508201003 | 10 | 20 | 8.0 | 16.1 | 0.00 | 0.53 | 0.51 | 81 | 1019.3 |
| 20260508200006 | 10 | 340 | 6.4 | 9.7 | 0.00 | 0.53 | 0.51 | 81 | 1019.2 |
| 20260508195003 | 11 | 350 | 4.8 | 9.7 | 0.00 | 0.53 | 0.51 | 80 | 1019.1 |
| 20260508194005 | 11 | 355 | 6.4 | 8.0 | 0.00 | 0.53 | 0.51 | 80 | 1018.9 |
| 20260508193004 | 11 | 346 | 4.8 | 8.0 | 0.00 | 0.53 | 0.51 | 80 | 1018.9 |
| 20260508192005 | 11 | 342 | 4.8 | 6.4 | 0.00 | 0.53 | 0.51 | 80 | 1018.9 |
| 20260508191005 | 11 | 347 | 4.8 | 8.0 | 0.00 | 0.53 | 0.51 | 80 | 1018.8 |
| 20260508190008 | 11 | 355 | 3.2 | 6.4 | 0.00 | 0.53 | 0.51 | 80 | 1018.8 |
| 20260508185002 | 11 | 350 | 4.8 | 8.0 | 0.00 | 0.89 | 0.51 | 79 | 1018.7 |
| 20260508184002 | 11 | 344 | 4.8 | 8.0 | 0.00 | 0.89 | 0.51 | 79 | 1018.6 |
| 20260508183005 | 11 | 348 | 6.4 | 12.9 | 0.00 | 0.89 | 0.51 | 79 | 1018.5 |
| 20260508182002 | 11 | 333 | 6.4 | 9.7 | 0.00 | 0.89 | 0.51 | 78 | 1018.4 |
| 20260508181003 | 12 | 345 | 4.8 | 9.7 | 0.00 | 0.89 | 0.51 | 78 | 1018.3 |
| 20260508180005 | 12 | 339 | 4.8 | 8.0 | 0.00 | 0.89 | 0.51 | 77 | 1018.3 |
| 20260508174003 | 12 | 347 | 6.4 | 9.7 | 0.00 | 0.89 | 0.51 | 76 | 1018.1 |
| 20260508173005 | 12 | 350 | 6.4 | 9.7 | 0.00 | 0.89 | 0.51 | 77 | 1018.0 |
| 20260508172004 | 12 | 319 | 4.8 | 8.0 | 0.00 | 0.89 | 0.51 | 77 | 1018.0 |
| 20260508171003 | 12 | 338 | 4.8 | 6.4 | 0.00 | 0.89 | 0.51 | 76 | 1017.9 |
| 20260508170006 | 12 | 338 | 4.8 | 8.0 | 0.00 | 0.89 | 0.51 | 74 | 1017.9 |
| 20260508164002 | 13 | 355 | 4.8 | 9.7 | 0.00 | 0.89 | 0.51 | 74 | 1017.9 |
| 20260508163002 | 13 | 346 | 4.8 | 9.7 | 0.00 | 0.89 | 0.51 | 74 | 1017.9 |
| 20260508162003 | 13 | 340 | 4.8 | 9.7 | 0.00 | 0.89 | 0.51 | 73 | 1017.8 |
| 20260508161002 | 13 | 355 | 4.8 | 9.7 | 0.00 | 0.89 | 0.51 | 74 | 1017.8 |
| 20260508160006 | 13 | 23 | 6.4 | 9.7 | 0.00 | 0.89 | 0.51 | 74 | 1017.8 |
| 20260508155002 | 13 | 329 | 6.4 | 12.9 | 0.00 | 0.89 | 0.51 | 74 | 1017.8 |
| 20260508154004 | 13 | 344 | 4.8 | 8.0 | 0.00 | 0.89 | 0.51 | 75 | 1017.8 |
| 20260508152002 | 13 | 323 | 6.4 | 9.7 | 0.00 | 0.89 | 0.51 | 75 | 1017.9 |
| 20260508151002 | 13 | 350 | 4.8 | 9.7 | 0.00 | 0.89 | 0.51 | 74 | 1017.9 |
| 20260508150006 | 13 | 325 | 6.4 | 12.9 | 0.00 | 0.89 | 0.51 | 75 | 1017.9 |
| 20260508142005 | 13 | 5 | 6.4 | 9.7 | 0.00 | 0.89 | 0.51 | 76 | 1017.9 |
| 20260508141004 | 12 | 321 | 8.0 | 16.1 | 0.00 | 0.89 | 0.51 | 76 | 1018.0 |
| 20260508140007 | 12 | 17 | 9.7 | 17.7 | 0.00 | 0.89 | 0.51 | 75 | 1017.9 |
| 20260508134003 | 12 | 346 | 11.3 | 17.7 | 0.00 | 0.89 | 0.51 | 76 | 1017.9 |
| 20260508133002 | 12 | 334 | 9.7 | 16.1 | 0.00 | 0.89 | 0.51 | 77 | 1018.0 |
| 20260508132002 | 12 | 329 | 11.3 | 17.7 | 0.00 | 0.89 | 0.51 | 76 | 1018.0 |
| 20260508131002 | 12 | 360 | 9.7 | 16.1 | 0.00 | 0.89 | 0.51 | 76 | 1018.0 |
| 20260508130005 | 12 | 347 | 9.7 | 17.7 | 0.00 | 0.89 | 0.51 | 77 | 1018.1 |
| 20260508125003 | 12 | 340 | 8.0 | 16.1 | 0.00 | 0.89 | 0.51 | 78 | 1018.1 |
| 20260508124002 | 12 | 360 | 8.0 | 16.1 | 0.00 | 0.89 | 0.51 | 80 | 1018.1 |
| 20260508123001 | 12 | 331 | 8.0 | 16.1 | 0.00 | 0.89 | 0.51 | 81 | 1018.1 |
| 20260508122003 | 12 | 329 | 8.0 | 14.5 | 0.00 | 0.89 | 0.51 | 79 | 1018.1 |
| 20260508115005 | 12 | 331 | 12.9 | 20.9 | 0.00 | 0.89 | 0.51 | 80 | 1018.0 |
| 20260508114005 | 12 | 337 | 8.0 | 16.1 | 0.00 | 0.89 | 0.51 | 80 | 1018.0 |
| 20260508113005 | 12 | 294 | 8.0 | 17.7 | 0.00 | 0.89 | 0.51 | 78 | 1017.9 |
| 20260508112005 | 12 | 334 | 11.3 | 19.3 | 0.00 | 0.89 | 0.51 | 80 | 1017.9 |
| 20260508111005 | 12 | 5 | 9.7 | 17.7 | 0.00 | 0.89 | 0.51 | 81 | 1017.8 |
| 20260508110008 | 12 | 13 | 9.7 | 17.7 | 0.00 | 0.89 | 0.51 | 80 | 1017.8 |
| 20260508105005 | 12 | 350 | 6.4 | 16.1 | 0.00 | 0.89 | 0.51 | 82 | 1017.8 |
| 20260508104005 | 12 | 342 | 6.4 | 12.9 | 0.00 | 0.89 | 0.51 | 82 | 1017.7 |
| 20260508102005 | 11 | 332 | 9.7 | 16.1 | 0.00 | 0.89 | 0.51 | 83 | 1017.8 |
| 20260508100008 | 12 | 306 | 4.8 | 8.0 | 0.00 | 0.89 | 0.51 | 83 | 1017.8 |
| 20260508095008 | 11 | 298 | 4.8 | 8.0 | 0.00 | 0.89 | 0.51 | 84 | 1017.8 |
| 20260508094005 | 11 | 355 | 6.4 | 9.7 | 0.00 | 0.89 | 0.51 | 84 | 1017.9 |
| 20260508093005 | 11 | 345 | 8.0 | 14.5 | 0.00 | 0.89 | 0.51 | 84 | 1017.9 |
| 20260508092005 | 11 | 333 | 4.8 | 9.7 | 0.00 | 0.89 | 0.51 | 84 | 1017.9 |
| 20260508091005 | 11 | 323 | 4.8 | 8.0 | 0.00 | 0.89 | 0.51 | 86 | 1017.8 |
| 20260508090008 | 11 | 323 | 4.8 | 8.0 | 0.00 | 0.89 | 0.51 | 85 | 1017.8 |
| 20260508084005 | 10 | 355 | 9.7 | 16.1 | 0.00 | 0.89 | 0.51 | 87 | 1017.7 |
| 20260508083005 | 10 | 15 | 8.0 | 12.9 | 0.00 | 0.89 | 0.51 | 87 | 1017.7 |
| 20260508082005 | 11 | 329 | 6.4 | 9.7 | 0.00 | 0.89 | 0.51 | 88 | 1017.6 |
| 20260508081008 | 10 | 329 | 6.4 | 9.7 | 0.00 | 0.89 | 0.51 | 87 | 1017.5 |
| 20260508080008 | 11 | 346 | 6.4 | 9.7 | 0.00 | 0.89 | 0.51 | 88 | 1017.4 |
| 20260508075005 | 10 | 9 | 6.4 | 9.7 | 0.00 | 0.89 | 0.51 | 88 | 1017.3 |
| 20260508073005 | 10 | 360 | 4.8 | 8.0 | 0.00 | 0.89 | 0.51 | 89 | 1017.3 |
| 20260508072005 | 10 | 345 | 4.8 | 8.0 | 0.00 | 0.89 | 0.51 | 89 | 1017.2 |
| 20260508071005 | 10 | 9 | 4.8 | 8.0 | 0.00 | 0.89 | 0.51 | 90 | 1017.1 |
| 20260508070007 | 10 | 355 | 4.8 | 9.7 | 0.00 | 0.89 | 0.51 | 91 | 1017.1 |
| 20260508065007 | 10 | 355 | 8.0 | 12.9 | 0.00 | 0.89 | 0.51 | 92 | 1017.0 |
| 20260508064005 | 10 | 336 | 6.4 | 9.7 | 0.00 | 0.89 | 0.51 | 92 | 1016.9 |
| 20260508063004 | 10 | 306 | 6.4 | 9.7 | 0.00 | 0.89 | 0.51 | 92 | 1016.8 |
| 20260508061005 | 10 | 337 | 6.4 | 12.9 | 0.05 | 0.89 | 0.51 | 93 | 1016.5 |
| 20260508060007 | 9 | 341 | 6.4 | 12.9 | 0.05 | 0.89 | 0.51 | 93 | 1016.4 |
| 20260508055005 | 9 | 327 | 6.4 | 9.7 | 0.05 | 0.89 | 0.51 | 93 | 1016.4 |
| 20260508054005 | 9 | 332 | 8.0 | 12.9 | 0.05 | 0.89 | 0.51 | 93 | 1016.4 |
| 20260508053005 | 9 | 342 | 6.4 | 9.7 | 0.08 | 0.89 | 0.51 | 93 | 1016.2 |
| 20260508052004 | 9 | 19 | 6.4 | 12.9 | 0.15 | 0.89 | 0.51 | 93 | 1016.2 |
| 20260508051004 | 9 | 9 | 6.4 | 8.0 | 0.15 | 0.84 | 0.48 | 93 | 1016.1 |
| 20260508045004 | 9 | 57 | 3.2 | 6.4 | 0.20 | 0.84 | 0.48 | 93 | 1016.1 |
| 20260508044006 | 9 | 22 | 4.8 | 8.0 | 0.18 | 0.81 | 0.46 | 93 | 1016.2 |
| 20260508041005 | 9 | 294 | 8.0 | 12.9 | 0.05 | 0.69 | 0.33 | 93 | 1016.3 |
| 20260508040010 | 9 | 298 | 9.7 | 16.1 | 0.00 | 0.64 | 0.28 | 93 | 1016.3 |
| 20260508035007 | 9 | 319 | 8.0 | 14.5 | 0.00 | 0.64 | 0.28 | 93 | 1016.1 |
| 20260508034007 | 9 | 343 | 8.0 | 16.1 | 0.00 | 0.64 | 0.28 | 94 | 1015.9 |
| 20260508033010 | 9 | 350 | 8.0 | 14.5 | 0.00 | 0.64 | 0.28 | 94 | 1015.7 |
| 20260508032009 | 9 | 360 | 8.0 | 16.1 | 0.00 | 0.64 | 0.28 | 94 | 1015.7 |
| 20260508031006 | 9 | 329 | 8.0 | 16.1 | 0.00 | 0.64 | 0.28 | 94 | 1015.7 |
| 20260508030012 | 9 | 340 | 11.3 | 17.7 | 0.00 | 0.64 | 0.28 | 93 | 1015.5 |
| 20260508025006 | 9 | 360 | 11.3 | 17.7 | 0.00 | 0.64 | 0.28 | 94 | 1015.5 |
| 20260508024006 | 9 | 318 | 12.9 | 20.9 | 0.00 | 0.64 | 0.28 | 93 | 1015.4 |
| 20260508023006 | 10 | 340 | 9.7 | 19.3 | 0.00 | 0.64 | 0.28 | 93 | 1015.3 |
| 20260508022006 | 10 | 328 | 9.7 | 16.1 | 0.00 | 0.64 | 0.28 | 93 | 1015.2 |
| 20260508021006 | 10 | 321 | 8.0 | 14.5 | 0.00 | 0.64 | 0.28 | 93 | 1015.1 |
| 20260508020011 | 10 | 10 | 9.7 | 17.7 | 0.03 | 0.64 | 0.28 | 93 | 1015.0 |
| 20260508015010 | 10 | 343 | 9.7 | 14.5 | 0.03 | 0.64 | 0.28 | 93 | 1015.0 |
| 20260508013006 | 10 | 344 | 6.4 | 12.9 | 0.03 | 0.64 | 0.28 | 93 | 1014.9 |